Flag for Canada Weather past 2 weeks in Miramichi, New Brunswick, Canada

Now
32 °F

Freezing rain. Ice fog.


Feels Like: 32 °F
Forecast: 36 / 52 °F
Wind: No wind

Location: Bathurst Airport

Current Time: Dec 25, 2014 at 2:46:58 AM

Latest Report: Dec 25, 2014 at 2:00 AM


Visibility: 1 mi

Pressure: 29.65 "Hg

Humidity: 100%

Dew point: 32 °F

Location of MiramichiLocation

Historic Weather in Miramichi — Graph

°F

Miramichi temperature yesterday

Maximum temperature yesterday: 32 °F (at 2:00 PM)
Minimum temperature yesterday: 21 °F (at 3:00 AM)
Average temperature yesterday: 28 °F

Past Weeks' High & Low Weather Summary

 TemperatureHumidityPressure
High37 °F (Dec 12, 4:00 PM)100% (Dec 10, 1:52 AM)30.49 "Hg (Dec 10, 1:52 AM)
Low16 °F (Dec 16, 2:00 AM)64% (Dec 15, 1:00 PM)29.45 "Hg (Dec 18, 3:00 PM)
Average28 °F91%30.03 "Hg
* Reported Dec 10 1:00 AM — Dec 25 1:00 AM, Miramichi, Weather by CustomWeather, © 2014

Note: Actual official high and low records may vary slightly from our data, if they occured in-between our weather recording intervals... More about our weather records

Advertising

Miramichi weather history for previous 24 hours

 ConditionsComfort  
Time TempWeatherWind HumidityBarometerVisibility
1:00 AM
Dec 25
32 °FFreezing rain. Ice fog.No wind100%29.71 "Hg1 mi
12:00 AM32 °FLight freezing rain. Ice fog.3 mph100%29.77 "Hg2 mi
11:00 PM
Dec 24
32 °FLight freezing rain. Ice fog.3 mph100%29.83 "Hg2 mi
10:00 PM32 °FLight freezing rain. Ice fog.3 mph100%29.88 "Hg2 mi
9:00 PM32 °FLight freezing rain. Ice fog.2 mph100%29.94 "Hg2 mi
8:00 PM32 °FLight freezing rain. Ice fog.5 mph100%29.98 "Hg2 mi
7:00 PM32 °FLight freezing rain. Ice fog.6 mph100%30.02 "Hg2 mi
6:51 PM32 °FLight freezing rain. Ice fog.5 mph100%30.03 "Hg2 mi
6:00 PM32 °FLight freezing rain. Ice fog.6 mph93%30.06 "Hg1 mi
5:00 PM32 °FLight freezing rain. Ice fog.5 mph93%30.09 "Hg1 mi
4:00 PM32 °FLight freezing rain. Ice fog.6 mph93%30.13 "Hg1 mi
3:00 PM32 °FLight freezing rain. Ice fog.6 mph93%30.14 "Hg1 mi
2:00 PM32 °FLight freezing rain. Overcast.6 mph87%30.16 "Hg7 mi
1:00 PM30 °FOvercast.3 mph93%30.20 "Hg12 mi
12:00 PM30 °FOvercast.5 mph86%30.25 "Hg12 mi
11:00 AM28 °FOvercast.No wind93%30.32 "Hg12 mi
10:00 AM27 °FOvercast.3 mph93%30.32 "Hg12 mi
9:00 AM25 °FIce fog.3 mph100%30.34 "Hg6 mi
8:00 AM25 °FIce fog.No wind93%30.35 "Hg5 mi
7:00 AM25 °FIce fog.No wind93%30.36 "Hg6 mi
6:00 AM23 °FCold.No wind93%30.35 "Hg6 mi
5:00 AM23 °FIce fog.No wind93%30.36 "Hg5 mi
4:00 AM21 °FIce fog.No wind93%30.35 "Hg1 mi
3:00 AM21 °FIce fog.No wind100%30.37 "Hg4 mi
2:00 AM25 °FOvercast.2 mph100%30.40 "Hg12 mi
Weather by CustomWeather, © 2014

See weather overviewHow to use our weather pages